Time,TemperatureF,DewpointF,PressureIn,WindDirection,WindDirectionDegrees,WindSpeedMPH,WindSpeedGustMPH,Humidity,HourlyPrecipIn,Conditions,Clouds,dailyrainin,SoftwareType,DateUTC
2013-10-07 00:02:00,47.7,40.9,30.20,North,0,0.0,0.0,77,0.00,,,0.00,WSDL version 440,2013-10-07 04:02:00,
2013-10-07 00:07:00,47.7,41.1,30.20,North,-999,-999.0,-999.0,78,0.00,,,0.00,WSDL version 440,2013-10-07 04:07:00,
2013-10-07 00:12:00,47.5,41.2,30.20,North,-999,-999.0,-999.0,79,0.00,,,0.00,WSDL version 440,2013-10-07 04:12:00,
2013-10-07 00:17:00,47.5,41.6,30.20,North,-999,-999.0,-999.0,80,0.00,,,0.00,WSDL version 440,2013-10-07 04:17:00,
2013-10-07 00:22:00,47.5,41.7,30.20,North,-999,-999.0,-999.0,80,0.00,,,0.00,WSDL version 440,2013-10-07 04:22:00,
2013-10-07 00:27:00,47.3,41.6,30.20,North,-999,-999.0,-999.0,80,0.00,,,0.00,WSDL version 440,2013-10-07 04:27:00,
2013-10-07 00:32:00,47.3,41.8,30.20,North,-999,-999.0,-999.0,81,0.00,,,0.00,WSDL version 440,2013-10-07 04:32:00,
2013-10-07 00:37:00,47.3,42.1,30.20,North,-999,-999.0,-999.0,82,0.00,,,0.00,WSDL version 440,2013-10-07 04:37:00,
2013-10-07 00:42:00,47.3,42.2,30.20,WSW,248,0.8,1.6,82,0.00,,,0.00,WSDL version 440,2013-10-07 04:42:00,
2013-10-07 00:47:00,47.3,42.2,30.20,SW,225,0.0,1.6,82,0.00,,,0.00,WSDL version 440,2013-10-07 04:47:00,
2013-10-07 00:52:00,47.1,42.1,30.20,SW,225,0.0,0.0,83,0.00,,,0.00,WSDL version 440,2013-10-07 04:52:00,
2013-10-07 00:57:00,47.1,42.3,30.19,SW,225,0.0,0.0,83,0.00,,,0.00,WSDL version 440,2013-10-07 04:57:00,
2013-10-07 01:02:00,46.9,42.2,30.20,North,0,0.0,0.0,83,0.00,,,0.00,WSDL version 440,2013-10-07 05:02:00,
2013-10-07 01:07:00,46.9,42.5,30.19,SSW,203,0.0,0.0,84,0.00,,,0.00,WSDL version 440,2013-10-07 05:07:00,
2013-10-07 01:12:00,47.0,42.7,30.19,SSW,203,0.0,0.0,85,0.00,,,0.00,WSDL version 440,2013-10-07 05:12:00,
2013-10-07 01:17:00,47.1,43.0,30.19,WSW,248,0.0,0.0,86,0.00,,,0.00,WSDL version 440,2013-10-07 05:17:00,
2013-10-07 01:22:00,46.9,42.9,30.19,SW,225,0.0,0.0,86,0.00,,,0.00,WSDL version 440,2013-10-07 05:22:00,
2013-10-07 01:27:00,46.9,43.2,30.19,WSW,248,0.0,0.0,87,0.00,,,0.00,WSDL version 440,2013-10-07 05:27:00,
2013-10-07 01:32:00,46.9,43.2,30.19,WSW,248,0.0,0.0,87,0.00,,,0.00,WSDL version 440,2013-10-07 05:32:00,
2013-10-07 01:37:00,46.9,43.2,30.18,WSW,248,0.0,0.0,87,0.00,,,0.00,WSDL version 440,2013-10-07 05:37:00,
2013-10-07 01:42:00,46.9,43.2,30.18,WSW,248,0.6,1.6,87,0.00,,,0.00,WSDL version 440,2013-10-07 05:42:00,
2013-10-07 01:47:00,46.9,43.1,30.18,SW,225,0.4,1.6,87,0.00,,,0.00,WSDL version 440,2013-10-07 05:47:00,
2013-10-07 01:52:00,46.8,43.1,30.18,WSW,248,0.0,1.6,87,0.00,,,0.00,WSDL version 440,2013-10-07 05:52:00,
2013-10-07 01:57:00,46.8,43.0,30.18,WSW,248,0.0,1.3,87,0.00,,,0.00,WSDL version 440,2013-10-07 05:57:00,
2013-10-07 02:02:00,46.8,43.2,30.18,WSW,248,0.0,1.3,87,0.00,,,0.00,WSDL version 440,2013-10-07 06:02:00,
2013-10-07 02:07:00,46.8,43.3,30.18,WSW,248,0.0,0.0,88,0.00,,,0.00,WSDL version 440,2013-10-07 06:07:00,
2013-10-07 02:12:00,46.8,43.3,30.18,WSW,248,0.0,0.0,88,0.00,,,0.00,WSDL version 440,2013-10-07 06:12:00,
2013-10-07 02:17:00,46.8,43.3,30.18,WSW,248,0.0,0.0,88,0.00,,,0.00,WSDL version 440,2013-10-07 06:17:00,
2013-10-07 02:22:00,46.8,43.3,30.17,WSW,248,0.0,0.0,88,0.00,,,0.00,WSDL version 440,2013-10-07 06:22:00,
2013-10-07 02:27:00,46.8,43.3,30.17,WSW,248,0.0,0.0,88,0.00,,,0.00,WSDL version 440,2013-10-07 06:27:00,
2013-10-07 02:32:00,46.8,43.4,30.17,WSW,248,0.0,0.0,88,0.00,,,0.00,WSDL version 440,2013-10-07 06:32:00,
2013-10-07 02:37:00,46.8,43.7,30.17,WSW,248,0.0,1.1,89,0.00,,,0.00,WSDL version 440,2013-10-07 06:37:00,
2013-10-07 02:42:00,46.9,44.1,30.17,West,270,0.0,1.1,90,0.00,,,0.00,WSDL version 440,2013-10-07 06:42:00,
2013-10-07 02:47:00,46.9,44.2,30.17,WSW,248,0.0,1.1,90,0.00,,,0.00,WSDL version 440,2013-10-07 06:47:00,
2013-10-07 02:52:00,46.9,44.2,30.16,WSW,248,0.0,1.6,90,0.00,,,0.00,WSDL version 440,2013-10-07 06:52:00,
2013-10-07 02:57:00,46.9,44.2,30.16,WSW,248,0.2,1.6,90,0.00,,,0.00,WSDL version 440,2013-10-07 06:57:00,
2013-10-07 03:02:00,46.9,44.3,30.16,West,266,0.7,1.3,91,0.00,,,0.00,WSDL version 440,2013-10-07 07:02:00,
2013-10-07 03:07:00,47.1,44.6,30.16,WSW,248,0.7,2.2,91,0.00,,,0.00,WSDL version 440,2013-10-07 07:07:00,
2013-10-07 03:12:00,47.1,44.7,30.16,WSW,248,0.0,2.2,91,0.00,,,0.00,WSDL version 440,2013-10-07 07:12:00,
2013-10-07 03:17:00,47.1,44.7,30.15,WSW,248,0.4,1.6,91,0.00,,,0.00,WSDL version 440,2013-10-07 07:17:00,
2013-10-07 03:22:00,47.3,45.0,30.15,SW,233,1.0,2.2,92,0.00,,,0.00,WSDL version 440,2013-10-07 07:22:00,
2013-10-07 03:27:00,47.3,45.2,30.15,SSW,212,0.0,2.2,92,0.00,,,0.00,WSDL version 440,2013-10-07 07:27:00,
2013-10-07 03:32:00,47.3,45.5,30.15,West,270,0.0,1.3,93,0.00,,,0.00,WSDL version 440,2013-10-07 07:32:00,
2013-10-07 03:37:00,47.5,45.7,30.15,WSW,248,0.0,0.9,93,0.00,,,0.00,WSDL version 440,2013-10-07 07:37:00,
2013-10-07 03:42:00,47.5,45.7,30.15,WSW,248,0.0,1.3,93,0.00,,,0.00,WSDL version 440,2013-10-07 07:42:00,
2013-10-07 03:47:00,47.7,45.8,30.15,West,270,0.0,1.3,93,0.00,,,0.00,WSDL version 440,2013-10-07 07:47:00,
2013-10-07 03:52:00,47.7,45.8,30.15,West,270,0.0,0.0,93,0.00,,,0.00,WSDL version 440,2013-10-07 07:52:00,
2013-10-07 03:57:00,47.7,45.9,30.15,West,259,0.0,0.0,93,0.00,,,0.00,WSDL version 440,2013-10-07 07:57:00,
2013-10-07 04:02:00,47.8,46.0,30.14,SW,225,0.0,0.0,93,0.00,,,0.00,WSDL version 440,2013-10-07 08:02:00,
2013-10-07 04:07:00,47.8,46.0,30.14,SW,225,0.6,1.6,93,0.00,,,0.00,WSDL version 440,2013-10-07 08:07:00,
2013-10-07 04:17:00,47.8,46.2,30.14,WSW,250,0.6,1.6,94,0.00,,,0.00,WSDL version 440,2013-10-07 08:17:00,
2013-10-07 04:22:00,47.8,46.3,30.14,WSW,248,0.0,1.6,94,0.00,,,0.00,WSDL version 440,2013-10-07 08:22:00,
2013-10-07 04:27:00,47.9,46.4,30.14,WSW,248,0.6,1.3,94,0.00,,,0.00,WSDL version 440,2013-10-07 08:27:00,
2013-10-07 04:32:00,48.0,46.5,30.14,WSW,256,0.3,1.3,94,0.00,,,0.00,WSDL version 440,2013-10-07 08:32:00,
2013-10-07 04:37:00,48.0,46.5,30.14,WSW,248,0.0,1.3,94,0.00,,,0.00,WSDL version 440,2013-10-07 08:37:00,
2013-10-07 04:42:00,48.0,46.5,30.14,WSW,248,0.0,1.6,94,0.00,,,0.00,WSDL version 440,2013-10-07 08:42:00,
2013-10-07 04:47:00,48.0,46.5,30.13,WSW,248,0.1,1.6,94,0.00,,,0.00,WSDL version 440,2013-10-07 08:47:00,
2013-10-07 04:52:00,48.0,46.5,30.13,WSW,248,0.0,1.6,94,0.00,,,0.00,WSDL version 440,2013-10-07 08:52:00,
2013-10-07 04:57:00,48.0,46.5,30.13,WSW,248,0.0,1.6,94,0.00,,,0.00,WSDL version 440,2013-10-07 08:57:00,
2013-10-07 05:02:00,48.0,46.5,30.13,WSW,248,0.0,1.3,94,0.00,,,0.00,WSDL version 440,2013-10-07 09:02:00,
2013-10-07 05:09:00,48.1,46.5,30.13,WSW,248,0.0,1.6,94,0.00,,,0.00,WSDL version 440,2013-10-07 09:09:00,
2013-10-07 05:14:00,48.2,46.6,30.12,WSW,248,0.0,0.0,94,0.00,,,0.00,WSDL version 440,2013-10-07 09:14:00,
2013-10-07 05:19:00,48.2,46.7,30.12,WSW,248,0.4,1.3,94,0.00,,,0.00,WSDL version 440,2013-10-07 09:19:00,
2013-10-07 05:24:00,48.2,46.7,30.12,SSW,210,0.7,1.6,94,0.00,,,0.00,WSDL version 440,2013-10-07 09:24:00,
2013-10-07 05:29:00,48.2,46.7,30.12,WSW,248,1.0,2.7,94,0.00,,,0.00,WSDL version 440,2013-10-07 09:29:00,
2013-10-07 05:34:00,48.3,46.8,30.12,SSW,203,1.1,2.7,94,0.00,,,0.00,WSDL version 440,2013-10-07 09:34:00,
2013-10-07 05:39:00,48.4,46.9,30.12,SSW,203,0.4,2.2,95,0.00,,,0.00,WSDL version 440,2013-10-07 09:39:00,
2013-10-07 05:44:00,48.5,47.2,30.12,WSW,248,1.2,2.2,96,0.00,,,0.00,WSDL version 440,2013-10-07 09:44:00,
2013-10-07 05:49:00,48.6,47.3,30.12,WSW,248,1.2,2.2,96,0.00,,,0.00,WSDL version 440,2013-10-07 09:49:00,
2013-10-07 05:54:00,48.6,47.4,30.12,WSW,241,0.6,2.0,96,0.00,,,0.00,WSDL version 440,2013-10-07 09:54:00,
2013-10-07 05:59:00,48.7,47.5,30.12,WSW,241,0.0,2.0,96,0.00,,,0.00,WSDL version 440,2013-10-07 09:59:00,
2013-10-07 06:04:00,48.7,47.7,30.12,WSW,251,0.1,1.6,96,0.00,,,0.00,WSDL version 440,2013-10-07 10:04:00,
2013-10-07 06:09:00,48.9,48.0,30.12,WSW,248,0.0,1.6,97,0.00,,,0.00,WSDL version 440,2013-10-07 10:09:00,
2013-10-07 06:14:00,49.1,48.2,30.12,WSW,248,0.0,1.6,97,0.00,,,0.00,WSDL version 440,2013-10-07 10:14:00,
2013-10-07 06:19:00,49.2,48.3,30.12,West,263,0.0,1.3,97,0.00,,,0.00,WSDL version 440,2013-10-07 10:19:00,
2013-10-07 06:24:00,49.4,48.8,30.12,WSW,248,0.0,1.3,98,0.00,,,0.00,WSDL version 440,2013-10-07 10:24:00,
2013-10-07 06:29:00,49.5,48.9,30.11,West,263,0.0,1.1,98,0.00,,,0.00,WSDL version 440,2013-10-07 10:29:00,
2013-10-07 06:34:00,49.6,49.0,30.11,WNW,293,0.0,1.1,98,0.00,,,0.00,WSDL version 440,2013-10-07 10:34:00,
2013-10-07 06:39:00,49.8,49.2,30.11,WSW,248,0.9,1.6,98,0.00,,,0.00,WSDL version 440,2013-10-07 10:39:00,
2013-10-07 06:44:00,50.0,49.4,30.11,WSW,248,1.3,2.5,98,0.00,,,0.00,WSDL version 440,2013-10-07 10:44:00,
2013-10-07 06:49:00,50.2,49.6,30.11,SW,230,0.8,2.5,98,0.00,,,0.00,WSDL version 440,2013-10-07 10:49:00,
2013-10-07 06:54:00,50.4,49.8,30.11,SSE,158,1.2,2.5,98,0.00,,,0.00,WSDL version 440,2013-10-07 10:54:00,
2013-10-07 06:59:00,50.6,50.0,30.11,WSW,248,1.3,2.5,98,0.00,,,0.00,WSDL version 440,2013-10-07 10:59:00,
2013-10-07 07:04:00,50.8,50.2,30.11,SW,225,1.4,3.1,98,0.00,,,0.00,WSDL version 440,2013-10-07 11:04:00,
2013-10-07 07:09:00,50.9,50.3,30.10,SW,219,1.1,3.1,98,0.00,,,0.00,WSDL version 440,2013-10-07 11:09:00,
2013-10-07 07:14:00,50.9,50.3,30.11,SSW,203,0.9,3.1,98,0.00,,,0.00,WSDL version 440,2013-10-07 11:14:00,
2013-10-07 07:19:00,51.1,50.5,30.10,SSW,203,1.1,2.9,98,0.00,,,0.00,WSDL version 440,2013-10-07 11:19:00,
2013-10-07 07:24:00,51.1,50.5,30.10,WSW,248,0.9,2.9,98,0.00,,,0.00,WSDL version 440,2013-10-07 11:24:00,
2013-10-07 07:29:00,51.2,50.7,30.10,North,11,0.6,2.0,98,0.00,,,0.00,WSDL version 440,2013-10-07 11:29:00,
2013-10-07 07:34:00,51.3,50.9,30.10,WSW,248,0.9,2.5,99,0.00,,,0.00,WSDL version 440,2013-10-07 11:34:00,
2013-10-07 07:39:00,51.3,50.9,30.10,SW,230,0.3,2.5,99,0.00,,,0.00,WSDL version 440,2013-10-07 11:39:00,
2013-10-07 07:44:00,51.4,51.1,30.10,SSW,203,2.0,4.9,99,0.00,,,0.00,WSDL version 440,2013-10-07 11:44:00,
2013-10-07 07:49:00,51.4,51.1,30.10,East,87,0.8,4.9,99,0.00,,,0.00,WSDL version 440,2013-10-07 11:49:00,
2013-10-07 07:54:00,51.6,51.3,30.10,SW,222,2.2,3.1,99,0.00,,,0.00,WSDL version 440,2013-10-07 11:54:00,
2013-10-07 07:59:00,51.6,51.3,30.10,SSW,208,1.5,3.1,99,0.00,,,0.00,WSDL version 440,2013-10-07 11:59:00,
2013-10-07 08:04:00,51.6,51.3,30.10,SW,225,0.6,2.7,99,0.00,,,0.00,WSDL version 440,2013-10-07 12:04:00,
2013-10-07 08:09:00,51.7,51.4,30.10,SW,218,1.1,3.6,99,0.04,,,0.04,WSDL version 440,2013-10-07 12:09:00,
2013-10-07 08:14:00,51.8,51.5,30.10,SSW,203,1.2,3.6,99,0.04,,,0.04,WSDL version 440,2013-10-07 12:14:00,
2013-10-07 08:19:00,51.8,51.5,30.09,SSE,165,0.2,3.1,99,0.04,,,0.04,WSDL version 440,2013-10-07 12:19:00,
2013-10-07 08:24:00,52.0,51.7,30.09,SSW,210,0.4,3.1,99,0.04,,,0.04,WSDL version 440,2013-10-07 12:24:00,
2013-10-07 08:29:00,52.0,51.7,30.09,SW,233,0.2,2.5,99,0.04,,,0.04,WSDL version 440,2013-10-07 12:29:00,
2013-10-07 08:34:00,52.2,51.9,30.09,SW,230,1.6,3.1,99,0.04,,,0.04,WSDL version 440,2013-10-07 12:34:00,
2013-10-07 08:39:00,52.3,52.0,30.09,SSW,206,1.8,3.1,99,0.04,,,0.04,WSDL version 440,2013-10-07 12:39:00,
2013-10-07 08:44:00,52.3,52.0,30.09,SW,228,1.4,3.1,99,0.04,,,0.04,WSDL version 440,2013-10-07 12:44:00,
2013-10-07 08:49:00,52.5,52.2,30.09,SSW,207,1.1,3.4,99,0.04,,,0.04,WSDL version 440,2013-10-07 12:49:00,
2013-10-07 08:56:00,52.5,52.3,30.09,South,188,1.4,2.5,99,0.04,,,0.04,WSDL version 440,2013-10-07 12:56:00,
2013-10-07 09:01:00,52.7,52.7,30.09,SSW,197,0.6,2.5,100,0.04,,,0.04,WSDL version 440,2013-10-07 13:01:00,
2013-10-07 09:06:00,52.7,52.7,30.09,South,184,0.6,2.5,100,0.00,,,0.04,WSDL version 440,2013-10-07 13:06:00,
2013-10-07 09:11:00,52.8,52.8,30.09,SSW,203,1.2,3.1,100,0.00,,,0.04,WSDL version 440,2013-10-07 13:11:00,
2013-10-07 09:16:00,52.9,52.9,30.09,SSW,203,0.4,3.1,100,0.00,,,0.04,WSDL version 440,2013-10-07 13:16:00,
2013-10-07 09:21:00,53.0,53.0,30.09,South,173,1.5,3.8,100,0.00,,,0.04,WSDL version 440,2013-10-07 13:21:00,
2013-10-07 09:26:00,53.1,53.1,30.09,SSW,203,0.8,3.8,100,0.00,,,0.04,WSDL version 440,2013-10-07 13:26:00,
2013-10-07 09:36:00,53.2,53.2,30.08,SW,219,1.3,2.2,100,0.00,,,0.04,WSDL version 440,2013-10-07 13:36:00,
2013-10-07 09:42:00,53.4,53.4,30.08,SW,233,0.0,2.0,100,0.00,,,0.04,WSDL version 440,2013-10-07 13:42:00,
2013-10-07 09:47:00,53.5,53.4,30.07,SW,221,1.0,2.0,100,0.00,,,0.04,WSDL version 440,2013-10-07 13:47:00,
2013-10-07 09:52:00,53.6,53.6,30.07,SW,230,0.6,2.7,100,0.00,,,0.04,WSDL version 440,2013-10-07 13:52:00,
2013-10-07 09:57:00,53.6,53.6,30.07,SW,234,0.5,2.7,100,0.00,,,0.04,WSDL version 440,2013-10-07 13:57:00,
2013-10-07 10:02:00,53.8,53.8,30.07,SSW,203,0.0,1.3,100,0.00,,,0.04,WSDL version 440,2013-10-07 14:02:00,
2013-10-07 10:07:00,53.8,53.8,30.07,North,0,0.0,2.0,100,0.00,,,0.04,WSDL version 440,2013-10-07 14:07:00,
2013-10-07 10:12:00,54.0,54.0,30.07,WSW,248,0.0,2.7,100,0.00,,,0.04,WSDL version 440,2013-10-07 14:12:00,
2013-10-07 10:17:00,54.0,54.0,30.06,SW,218,1.2,2.7,100,0.00,,,0.04,WSDL version 440,2013-10-07 14:17:00,
2013-10-07 10:22:00,54.1,54.1,30.06,SSW,203,0.0,2.0,100,0.00,,,0.04,WSDL version 440,2013-10-07 14:22:00,
2013-10-07 10:27:00,54.2,54.2,30.06,SSW,203,0.0,2.0,100,0.00,,,0.04,WSDL version 440,2013-10-07 14:27:00,
2013-10-07 10:32:00,54.3,54.3,30.06,WSW,240,0.4,2.5,100,0.00,,,0.04,WSDL version 440,2013-10-07 14:32:00,
2013-10-07 10:37:00,54.4,54.4,30.06,SE,124,0.2,2.5,100,0.00,,,0.04,WSDL version 440,2013-10-07 14:37:00,
2013-10-07 10:42:00,54.5,54.5,30.06,WSW,255,0.6,1.6,100,0.00,,,0.04,WSDL version 440,2013-10-07 14:42:00,
2013-10-07 10:47:00,54.5,54.5,30.06,SSW,203,0.4,2.0,100,0.00,,,0.04,WSDL version 440,2013-10-07 14:47:00,
2013-10-07 10:52:00,54.5,54.5,30.06,West,259,0.0,2.0,100,0.00,,,0.04,WSDL version 440,2013-10-07 14:52:00,
2013-10-07 10:57:00,54.7,54.7,30.05,SSW,203,0.0,2.5,100,0.00,,,0.04,WSDL version 440,2013-10-07 14:57:00,
2013-10-07 11:02:00,54.7,54.7,30.05,WSW,242,0.7,2.5,100,0.00,,,0.04,WSDL version 440,2013-10-07 15:02:00,
2013-10-07 11:07:00,54.9,54.9,30.05,North,0,0.0,1.6,100,0.00,,,0.04,WSDL version 440,2013-10-07 15:07:00,
2013-10-07 11:12:00,54.9,54.9,30.05,SSW,203,0.0,1.6,100,0.00,,,0.04,WSDL version 440,2013-10-07 15:12:00,
2013-10-07 11:17:00,55.0,55.0,30.05,WSW,240,0.0,0.0,100,0.04,,,0.08,WSDL version 440,2013-10-07 15:17:00,
2013-10-07 11:22:00,55.0,55.0,30.05,SSW,212,0.2,2.2,100,0.04,,,0.08,WSDL version 440,2013-10-07 15:22:00,
2013-10-07 11:27:00,55.2,55.2,30.05,WSW,248,0.0,2.2,100,0.04,,,0.08,WSDL version 440,2013-10-07 15:27:00,
2013-10-07 11:32:00,55.2,55.2,30.04,WSW,248,0.0,0.0,100,0.04,,,0.08,WSDL version 440,2013-10-07 15:32:00,
2013-10-07 11:37:00,55.3,55.3,30.04,SW,225,0.0,1.1,100,0.04,,,0.08,WSDL version 440,2013-10-07 15:37:00,
2013-10-07 11:42:00,55.5,55.5,30.04,SW,225,0.0,1.1,100,0.04,,,0.08,WSDL version 440,2013-10-07 15:42:00,
2013-10-07 11:47:00,55.7,55.7,30.03,SSW,203,0.0,0.0,100,0.08,,,0.13,WSDL version 440,2013-10-07 15:47:00,
2013-10-07 11:52:00,55.8,55.8,30.03,SSW,203,0.0,0.0,100,0.08,,,0.13,WSDL version 440,2013-10-07 15:52:00,
2013-10-07 11:57:00,55.9,55.9,30.03,WSW,248,0.0,0.0,100,0.08,,,0.13,WSDL version 440,2013-10-07 15:57:00,
2013-10-07 12:02:00,56.0,56.0,30.03,WSW,240,0.0,0.0,100,0.12,,,0.17,WSDL version 440,2013-10-07 16:02:00,
2013-10-07 12:07:00,56.2,56.2,30.03,WSW,248,0.0,0.0,100,0.20,,,0.25,WSDL version 440,2013-10-07 16:07:00,
2013-10-07 12:12:00,56.3,56.3,30.02,North,0,0.0,0.0,100,0.20,,,0.25,WSDL version 440,2013-10-07 16:12:00,
2013-10-07 12:17:00,56.3,56.3,30.02,South,191,0.0,1.3,100,0.16,,,0.25,WSDL version 440,2013-10-07 16:17:00,
2013-10-07 12:22:00,56.5,56.5,30.01,WSW,248,0.0,1.3,100,0.16,,,0.25,WSDL version 440,2013-10-07 16:22:00,
2013-10-07 12:27:00,56.5,56.5,30.01,WSW,248,0.0,1.1,100,0.16,,,0.25,WSDL version 440,2013-10-07 16:27:00,
2013-10-07 12:32:00,56.6,56.6,30.01,SSW,203,0.0,0.0,100,0.16,,,0.25,WSDL version 440,2013-10-07 16:32:00,
2013-10-07 12:37:00,56.7,56.7,30.00,North,0,0.0,0.0,100,0.16,,,0.25,WSDL version 440,2013-10-07 16:37:00,
2013-10-07 12:42:00,56.8,56.8,30.00,SSE,158,0.0,0.0,100,0.16,,,0.25,WSDL version 440,2013-10-07 16:42:00,
2013-10-07 12:47:00,56.9,56.9,30.00,South,180,0.0,0.0,100,0.12,,,0.25,WSDL version 440,2013-10-07 16:47:00,
2013-10-07 12:52:00,57.1,57.1,29.99,East,90,0.0,1.6,100,0.12,,,0.25,WSDL version 440,2013-10-07 16:52:00,
2013-10-07 12:57:00,57.2,57.2,29.99,South,188,0.0,1.6,100,0.12,,,0.25,WSDL version 440,2013-10-07 16:57:00,
2013-10-07 13:02:00,57.3,57.3,29.98,SSW,203,0.6,1.6,100,0.04,,,0.25,WSDL version 440,2013-10-07 17:02:00,
2013-10-07 13:07:00,57.4,57.4,29.98,SSW,203,0.0,1.6,100,0.00,,,0.25,WSDL version 440,2013-10-07 17:07:00,
2013-10-07 13:12:00,57.6,57.6,29.98,SW,214,0.2,0.9,100,0.00,,,0.25,WSDL version 440,2013-10-07 17:12:00,
2013-10-07 13:17:00,57.6,57.6,29.97,SSW,203,0.0,0.9,100,0.00,,,0.25,WSDL version 440,2013-10-07 17:17:00,
2013-10-07 13:22:00,57.7,57.7,29.97,SE,135,0.0,2.9,100,0.00,,,0.25,WSDL version 440,2013-10-07 17:22:00,
2013-10-07 13:27:00,57.9,57.9,29.97,SW,225,0.0,2.9,100,0.00,,,0.25,WSDL version 440,2013-10-07 17:27:00,
2013-10-07 13:32:00,57.9,57.9,29.96,SW,214,0.5,2.0,100,0.00,,,0.25,WSDL version 440,2013-10-07 17:32:00,
2013-10-07 13:37:00,58.1,58.1,29.96,SW,225,1.1,2.0,100,0.00,,,0.25,WSDL version 440,2013-10-07 17:37:00,
2013-10-07 13:42:00,58.2,58.2,29.96,SW,221,0.0,1.6,100,0.00,,,0.25,WSDL version 440,2013-10-07 17:42:00,
2013-10-07 13:47:00,58.4,58.4,29.96,ESE,113,0.0,1.6,100,0.00,,,0.25,WSDL version 440,2013-10-07 17:47:00,
2013-10-07 13:52:00,58.5,58.5,29.96,ESE,113,0.4,1.6,100,0.00,,,0.25,WSDL version 440,2013-10-07 17:52:00,
2013-10-07 13:57:00,58.6,58.6,29.96,SSE,163,0.0,0.9,100,0.00,,,0.25,WSDL version 440,2013-10-07 17:57:00,
2013-10-07 14:02:00,58.7,58.7,29.96,SSW,207,0.4,2.0,100,0.00,,,0.25,WSDL version 440,2013-10-07 18:02:00,
2013-10-07 14:07:00,58.8,58.8,29.95,SW,218,0.0,2.0,100,0.00,,,0.25,WSDL version 440,2013-10-07 18:07:00,
2013-10-07 14:12:00,58.8,58.8,29.95,SSW,203,0.0,1.6,100,0.04,,,0.29,WSDL version 440,2013-10-07 18:12:00,
2013-10-07 14:17:00,58.8,58.8,29.95,WSW,248,0.9,1.6,100,0.04,,,0.29,WSDL version 440,2013-10-07 18:17:00,
2013-10-07 14:22:00,58.8,58.8,29.95,SSW,194,0.0,1.1,100,0.04,,,0.29,WSDL version 440,2013-10-07 18:22:00,
2013-10-07 14:27:00,59.0,59.0,29.94,SW,218,0.0,4.3,100,0.04,,,0.29,WSDL version 440,2013-10-07 18:27:00,
2013-10-07 14:32:00,59.0,59.0,29.94,SSW,203,0.0,4.3,100,0.04,,,0.29,WSDL version 440,2013-10-07 18:32:00,
2013-10-07 14:37:00,59.0,59.0,29.94,SSW,212,0.0,0.9,100,0.04,,,0.29,WSDL version 440,2013-10-07 18:37:00,
2013-10-07 14:42:00,59.0,59.0,29.94,SE,135,0.0,1.1,100,0.04,,,0.29,WSDL version 440,2013-10-07 18:42:00,
2013-10-07 14:49:00,59.2,59.2,29.93,SW,233,0.0,1.3,100,0.04,,,0.29,WSDL version 440,2013-10-07 18:49:00,
2013-10-07 14:54:00,59.2,59.2,29.93,SSW,203,0.4,2.0,100,0.04,,,0.29,WSDL version 440,2013-10-07 18:54:00,
2013-10-07 14:59:00,59.2,59.2,29.93,SSE,158,0.5,2.0,100,0.04,,,0.29,WSDL version 440,2013-10-07 18:59:00,
2013-10-07 15:04:00,59.4,59.4,29.92,SSW,203,0.0,2.0,100,0.04,,,0.29,WSDL version 440,2013-10-07 19:04:00,
2013-10-07 15:09:00,59.4,59.4,29.92,South,185,0.0,1.6,100,0.00,,,0.29,WSDL version 440,2013-10-07 19:09:00,
2013-10-07 15:14:00,59.4,59.4,29.92,ESE,113,0.0,0.9,100,0.00,,,0.29,WSDL version 440,2013-10-07 19:14:00,
2013-10-07 15:19:00,59.6,59.6,29.92,South,180,0.4,1.3,100,0.00,,,0.29,WSDL version 440,2013-10-07 19:19:00,
2013-10-07 15:24:00,59.8,59.7,29.92,SSW,198,0.2,1.6,100,0.00,,,0.29,WSDL version 440,2013-10-07 19:24:00,
2013-10-07 15:29:00,60.0,60.0,29.91,SE,135,0.2,1.6,100,0.00,,,0.29,WSDL version 440,2013-10-07 19:29:00,
2013-10-07 15:34:00,60.2,60.2,29.91,South,169,0.7,2.7,100,0.00,,,0.29,WSDL version 440,2013-10-07 19:34:00,
2013-10-07 15:39:00,60.4,60.4,29.91,South,173,0.9,2.7,100,0.00,,,0.29,WSDL version 440,2013-10-07 19:39:00,
2013-10-07 15:44:00,60.5,60.5,29.91,SW,228,0.4,2.5,100,0.00,,,0.29,WSDL version 440,2013-10-07 19:44:00,
2013-10-07 15:49:00,60.7,60.7,29.90,SSW,203,1.3,2.5,100,0.00,,,0.29,WSDL version 440,2013-10-07 19:49:00,
2013-10-07 15:54:00,61.1,61.1,29.90,SSE,154,0.4,2.9,100,0.00,,,0.29,WSDL version 440,2013-10-07 19:54:00,
2013-10-07 15:59:00,61.3,61.3,29.89,SSW,208,0.4,2.9,100,0.00,,,0.29,WSDL version 440,2013-10-07 19:59:00,
2013-10-07 16:04:00,61.4,61.4,29.89,SSE,167,0.9,2.9,100,0.00,,,0.29,WSDL version 440,2013-10-07 20:04:00,
2013-10-07 16:09:00,61.6,61.6,29.88,SW,214,1.5,2.9,100,0.00,,,0.29,WSDL version 440,2013-10-07 20:09:00,
2013-10-07 16:14:00,61.9,61.9,29.88,SW,231,2.1,5.6,100,0.00,,,0.29,WSDL version 440,2013-10-07 20:14:00,
2013-10-07 16:19:00,62.2,62.2,29.88,SW,214,1.7,5.6,100,0.00,,,0.29,WSDL version 440,2013-10-07 20:19:00,
2013-10-07 16:24:00,62.2,62.2,29.88,SSW,194,1.5,4.3,100,0.00,,,0.29,WSDL version 440,2013-10-07 20:24:00,
2013-10-07 16:29:00,62.2,62.2,29.88,WSW,238,1.6,5.4,100,0.00,,,0.29,WSDL version 440,2013-10-07 20:29:00,
2013-10-07 16:34:00,62.4,62.4,29.87,SSW,199,1.5,6.0,100,0.00,,,0.29,WSDL version 440,2013-10-07 20:34:00,
2013-10-07 16:39:00,62.5,62.5,29.87,West,263,1.6,6.0,100,0.00,,,0.29,WSDL version 440,2013-10-07 20:39:00,
2013-10-07 16:44:00,62.7,62.7,29.87,SW,219,2.7,3.8,100,0.00,,,0.29,WSDL version 440,2013-10-07 20:44:00,
2013-10-07 16:49:00,62.8,62.8,29.87,SSW,212,1.6,3.8,100,0.00,,,0.29,WSDL version 440,2013-10-07 20:49:00,
2013-10-07 16:54:00,63.0,63.0,29.87,SW,215,2.2,3.8,100,0.00,,,0.29,WSDL version 440,2013-10-07 20:54:00,
2013-10-07 16:59:00,63.0,63.0,29.87,SW,229,2.8,4.7,100,0.00,,,0.29,WSDL version 440,2013-10-07 20:59:00,
2013-10-07 17:04:00,63.0,63.0,29.87,SSW,211,2.4,5.8,100,0.00,,,0.29,WSDL version 440,2013-10-07 21:04:00,
2013-10-07 17:09:00,63.1,63.1,29.86,SSW,211,2.8,7.6,100,0.00,,,0.29,WSDL version 440,2013-10-07 21:09:00,
2013-10-07 17:14:00,63.1,63.1,29.86,SSW,195,2.1,7.6,100,0.00,,,0.29,WSDL version 440,2013-10-07 21:14:00,
2013-10-07 17:19:00,63.2,63.2,29.87,SSW,213,2.1,4.9,100,0.00,,,0.29,WSDL version 440,2013-10-07 21:19:00,
2013-10-07 17:24:00,63.1,63.1,29.86,South,191,2.5,4.9,100,0.00,,,0.29,WSDL version 440,2013-10-07 21:24:00,
2013-10-07 17:29:00,63.3,63.3,29.86,SSW,205,3.1,4.9,100,0.00,,,0.29,WSDL version 440,2013-10-07 21:29:00,
2013-10-07 17:34:00,63.3,63.3,29.86,SW,219,1.6,4.9,100,0.00,,,0.29,WSDL version 440,2013-10-07 21:34:00,
2013-10-07 17:39:00,63.4,63.4,29.86,SSW,208,3.2,6.3,100,0.00,,,0.29,WSDL version 440,2013-10-07 21:39:00,
2013-10-07 17:44:00,63.5,63.5,29.86,WSW,243,3.3,7.4,100,0.00,,,0.29,WSDL version 440,2013-10-07 21:44:00,
2013-10-07 17:49:00,63.5,63.5,29.86,South,178,2.7,7.4,100,0.00,,,0.29,WSDL version 440,2013-10-07 21:49:00,
2013-10-07 17:54:00,63.5,63.5,29.86,South,186,2.7,6.9,100,0.00,,,0.29,WSDL version 440,2013-10-07 21:54:00,
2013-10-07 17:59:00,63.5,63.5,29.86,SSW,196,2.8,7.6,100,0.00,,,0.29,WSDL version 440,2013-10-07 21:59:00,
2013-10-07 18:04:00,63.5,63.5,29.86,SSW,200,2.4,7.6,100,0.00,,,0.29,WSDL version 440,2013-10-07 22:04:00,
2013-10-07 18:09:00,63.5,63.5,29.86,SSW,193,2.3,4.9,100,0.00,,,0.29,WSDL version 440,2013-10-07 22:09:00,
2013-10-07 18:14:00,63.5,63.5,29.86,South,183,2.2,3.4,100,0.00,,,0.29,WSDL version 440,2013-10-07 22:14:00,
2013-10-07 18:19:00,63.5,63.5,29.86,SSE,158,2.0,3.6,100,0.00,,,0.29,WSDL version 440,2013-10-07 22:19:00,
2013-10-07 18:24:00,63.5,63.5,29.86,South,185,1.8,3.6,100,0.00,,,0.29,WSDL version 440,2013-10-07 22:24:00,
2013-10-07 18:29:00,63.4,63.4,29.86,SSW,194,1.3,3.6,100,0.00,,,0.29,WSDL version 440,2013-10-07 22:29:00,
2013-10-07 18:34:00,63.4,63.3,29.86,SSW,211,1.7,3.6,100,0.00,,,0.29,WSDL version 440,2013-10-07 22:34:00,
2013-10-07 18:39:00,63.4,63.4,29.86,South,180,1.7,3.4,100,0.00,,,0.29,WSDL version 440,2013-10-07 22:39:00,
2013-10-07 18:44:00,63.4,63.4,29.85,SSE,154,1.8,2.9,100,0.00,,,0.29,WSDL version 440,2013-10-07 22:44:00,
2013-10-07 18:49:00,63.4,63.3,29.85,SSW,203,1.5,3.1,100,0.00,,,0.29,WSDL version 440,2013-10-07 22:49:00,
2013-10-07 18:54:00,63.3,63.3,29.85,SSW,211,1.7,3.6,100,0.00,,,0.29,WSDL version 440,2013-10-07 22:54:00,
2013-10-07 18:59:00,63.5,63.5,29.85,SSW,194,1.5,3.6,100,0.00,,,0.29,WSDL version 440,2013-10-07 22:59:00,
2013-10-07 19:04:00,63.5,63.5,29.85,SSW,208,1.4,4.3,100,0.00,,,0.29,WSDL version 440,2013-10-07 23:04:00,
2013-10-07 19:09:00,63.5,63.5,29.85,SSW,211,1.7,4.3,100,0.00,,,0.29,WSDL version 440,2013-10-07 23:09:00,
2013-10-07 19:14:00,63.5,63.5,29.85,South,191,1.8,4.0,100,0.00,,,0.29,WSDL version 440,2013-10-07 23:14:00,
2013-10-07 19:19:00,63.5,63.5,29.84,SSW,210,1.3,4.0,100,0.00,,,0.29,WSDL version 440,2013-10-07 23:19:00,
2013-10-07 19:24:00,63.5,63.5,29.84,South,183,3.3,7.2,100,0.00,,,0.29,WSDL version 440,2013-10-07 23:24:00,
2013-10-07 19:29:00,63.5,63.5,29.83,SSE,161,2.1,7.2,100,0.00,,,0.29,WSDL version 440,2013-10-07 23:29:00,
2013-10-07 19:34:00,63.6,63.6,29.83,SSW,206,2.5,5.4,100,0.00,,,0.29,WSDL version 440,2013-10-07 23:34:00,
2013-10-07 19:39:00,63.7,63.7,29.83,SSW,203,2.4,5.4,100,0.00,,,0.29,WSDL version 440,2013-10-07 23:39:00,
2013-10-07 19:44:00,63.7,63.7,29.83,SW,216,1.9,4.0,100,0.00,,,0.29,WSDL version 440,2013-10-07 23:44:00,
2013-10-07 19:49:00,63.7,63.7,29.83,SSW,213,2.4,5.8,100,0.00,,,0.29,WSDL version 440,2013-10-07 23:49:00,
2013-10-07 19:54:00,63.8,63.8,29.83,SSW,206,2.6,5.8,100,0.00,,,0.29,WSDL version 440,2013-10-07 23:54:00,
2013-10-07 19:59:00,63.9,63.9,29.83,South,190,1.8,7.4,100,0.00,,,0.29,WSDL version 440,2013-10-07 23:59:00,
2013-10-07 20:04:00,63.9,63.9,29.83,WSW,239,1.6,7.4,100,0.00,,,0.29,WSDL version 440,2013-10-08 00:04:00,
2013-10-07 20:09:00,63.8,63.8,29.82,SW,228,1.5,3.8,100,0.00,,,0.29,WSDL version 440,2013-10-08 00:09:00,
2013-10-07 20:14:00,63.9,63.9,29.82,SSE,165,2.0,4.0,100,0.00,,,0.29,WSDL version 440,2013-10-08 00:14:00,
2013-10-07 20:19:00,63.9,63.9,29.82,SSW,210,1.9,4.0,100,0.00,,,0.29,WSDL version 440,2013-10-08 00:19:00,
2013-10-07 20:24:00,63.9,63.9,29.81,SSW,208,2.9,4.7,100,0.00,,,0.29,WSDL version 440,2013-10-08 00:24:00,
2013-10-07 20:29:00,63.9,63.9,29.81,SSE,165,2.5,4.7,100,0.00,,,0.29,WSDL version 440,2013-10-08 00:29:00,
2013-10-07 20:34:00,64.0,64.0,29.81,SSW,205,2.7,7.2,100,0.00,,,0.29,WSDL version 440,2013-10-08 00:34:00,
2013-10-07 20:39:00,64.0,64.0,29.81,South,180,2.9,7.2,100,0.00,,,0.29,WSDL version 440,2013-10-08 00:39:00,
2013-10-07 20:44:00,63.9,63.9,29.81,SW,214,2.0,5.8,100,0.00,,,0.29,WSDL version 440,2013-10-08 00:44:00,
2013-10-07 20:49:00,63.9,63.9,29.81,SW,215,2.5,4.0,100,0.00,,,0.29,WSDL version 440,2013-10-08 00:49:00,
2013-10-07 20:54:00,63.9,63.9,29.81,SE,131,2.6,4.0,100,0.00,,,0.29,WSDL version 440,2013-10-08 00:54:00,
2013-10-07 20:59:00,64.0,64.0,29.81,SSW,196,2.6,4.0,100,0.00,,,0.29,WSDL version 440,2013-10-08 00:59:00,
2013-10-07 21:04:00,64.0,64.0,29.80,South,177,1.8,4.0,100,0.00,,,0.29,WSDL version 440,2013-10-08 01:04:00,
2013-10-07 21:14:00,64.0,64.0,29.81,SSE,161,2.1,4.0,100,0.00,,,0.29,WSDL version 440,2013-10-08 01:14:00,
2013-10-07 21:19:00,64.0,64.0,29.81,SSW,194,1.5,3.6,100,0.00,,,0.29,WSDL version 440,2013-10-08 01:19:00,
2013-10-07 21:24:00,63.9,63.9,29.81,WSW,248,0.9,2.9,100,0.00,,,0.29,WSDL version 440,2013-10-08 01:24:00,
2013-10-07 21:29:00,64.0,64.0,29.80,SSE,158,1.3,2.7,100,0.00,,,0.29,WSDL version 440,2013-10-08 01:29:00,
2013-10-07 21:34:00,64.0,64.0,29.80,South,177,1.1,2.9,100,0.00,,,0.29,WSDL version 440,2013-10-08 01:34:00,
2013-10-07 21:39:00,64.0,64.0,29.80,SSW,199,1.6,3.8,100,0.00,,,0.29,WSDL version 440,2013-10-08 01:39:00,
2013-10-07 21:44:00,64.2,64.2,29.79,WSW,245,2.4,3.8,100,0.00,,,0.29,WSDL version 440,2013-10-08 01:44:00,
2013-10-07 21:49:00,64.2,64.2,29.79,SSE,149,2.3,3.6,100,0.00,,,0.29,WSDL version 440,2013-10-08 01:49:00,
2013-10-07 21:54:00,64.4,64.4,29.79,SE,146,1.9,4.9,100,0.00,,,0.29,WSDL version 440,2013-10-08 01:54:00,
2013-10-07 21:59:00,64.4,64.4,29.79,South,186,1.9,4.9,100,0.00,,,0.29,WSDL version 440,2013-10-08 01:59:00,
2013-10-07 22:04:00,64.5,64.5,29.79,South,188,1.9,4.0,100,0.00,,,0.29,WSDL version 440,2013-10-08 02:04:00,
2013-10-07 22:09:00,64.5,64.5,29.78,SSE,158,1.7,3.6,100,0.00,,,0.29,WSDL version 440,2013-10-08 02:09:00,
2013-10-07 22:14:00,64.6,64.6,29.78,SSE,158,2.1,4.3,100,0.00,,,0.29,WSDL version 440,2013-10-08 02:14:00,
2013-10-07 22:19:00,64.6,64.6,29.78,South,188,2.2,4.3,100,0.00,,,0.29,WSDL version 440,2013-10-08 02:19:00,
2013-10-07 22:24:00,64.6,64.6,29.78,SSE,160,2.5,5.4,100,0.00,,,0.29,WSDL version 440,2013-10-08 02:24:00,
2013-10-07 22:29:00,64.8,64.8,29.77,SSE,167,2.1,5.4,100,0.00,,,0.29,WSDL version 440,2013-10-08 02:29:00,
2013-10-07 22:34:00,64.8,64.8,29.77,SSE,167,2.2,4.9,100,0.00,,,0.29,WSDL version 440,2013-10-08 02:34:00,
2013-10-07 22:39:00,64.8,64.8,29.77,SW,214,1.2,4.9,100,0.00,,,0.29,WSDL version 440,2013-10-08 02:39:00,
2013-10-07 22:44:00,64.8,64.8,29.77,South,185,1.5,4.0,100,0.00,,,0.29,WSDL version 440,2013-10-08 02:44:00,
2013-10-07 22:49:00,64.9,64.9,29.76,SSW,212,2.1,4.0,100,0.00,,,0.29,WSDL version 440,2013-10-08 02:49:00,
2013-10-07 22:54:00,64.8,64.8,29.76,SSE,158,1.1,4.7,100,0.00,,,0.29,WSDL version 440,2013-10-08 02:54:00,
2013-10-07 22:59:00,64.8,64.8,29.76,SE,143,1.9,4.7,100,0.00,,,0.29,WSDL version 440,2013-10-08 02:59:00,
2013-10-07 23:04:00,64.8,64.8,29.76,SSW,199,0.9,3.8,100,0.00,,,0.29,WSDL version 440,2013-10-08 03:04:00,
2013-10-07 23:09:00,64.8,64.8,29.75,South,185,1.0,3.6,100,0.00,,,0.29,WSDL version 440,2013-10-08 03:09:00,
2013-10-07 23:14:00,64.9,64.9,29.76,SSW,210,0.4,3.6,100,0.00,,,0.29,WSDL version 440,2013-10-08 03:14:00,
2013-10-07 23:19:00,64.9,64.9,29.76,SSW,206,0.7,3.1,100,0.00,,,0.29,WSDL version 440,2013-10-08 03:19:00,
2013-10-07 23:24:00,64.9,64.8,29.76,SW,222,1.3,3.6,100,0.00,,,0.29,WSDL version 440,2013-10-08 03:24:00,
2013-10-07 23:29:00,64.9,64.9,29.75,SSW,205,0.6,3.6,100,0.04,,,0.33,WSDL version 440,2013-10-08 03:29:00,
2013-10-07 23:34:00,64.9,64.9,29.75,South,190,1.1,2.9,100,0.04,,,0.33,WSDL version 440,2013-10-08 03:34:00,
2013-10-07 23:39:00,64.9,64.9,29.74,SSE,164,0.8,2.9,100,0.04,,,0.33,WSDL version 440,2013-10-08 03:39:00,
2013-10-07 23:44:00,64.9,64.9,29.74,SW,215,0.8,3.8,100,0.12,,,0.41,WSDL version 440,2013-10-08 03:44:00,
2013-10-07 23:49:00,64.9,64.9,29.74,South,169,1.3,3.8,100,0.12,,,0.41,WSDL version 440,2013-10-08 03:49:00,
2013-10-07 23:54:00,64.8,64.8,29.74,SW,231,1.0,3.8,100,0.12,,,0.41,WSDL version 440,2013-10-08 03:54:00,
2013-10-07 23:59:00,64.8,64.8,29.74,WSW,248,0.4,3.8,100,0.12,,,0.41,WSDL version 440,2013-10-08 03:59:00,